Kirtland AFB, NM

8:31 AM MST on January 17, 2017 (GMT -0700)
Albuquerque International Sunport

Weather History for KABQ - November, 2013

Change the Weather History Date:

Wednesday, November 6, 2013

  Actual Average Record
Temperature  
Mean Temperature 42 °F 49 °F  
Max Temperature 55 °F 60 °F 78 °F (1909)
Min Temperature 29 °F 38 °F 19 °F (1935)
Degree Days  
Heating Degree Days 23 16  
Month to date heating degree days 93 90  
Since 1 July heating degree days 390 356  
Cooling Degree Days 0 0  
Month to date cooling degree days 0 0  
Year to date cooling degree days 1565 1322  
Moisture  
Dew Point 14 °F    
Average Humidity 38    
Maximum Humidity 58    
Minimum Humidity 18    
Precipitation  
Precipitation 0.00 in 0.02 in 0.32 in (1977)
Month to date precipitation 0.14 0.12  
Year to date precipitation 8.16 8.50  
Snow  
Snow 0.00 in - - ()
Month to date snowfall 0.0  
Since 1 July snowfall 0.0  
Since 1 September snowfall 0.0  
Snow Depth 0.00 in    
Sea Level Pressure  
Sea Level Pressure 30.37 in    
Wind  
Wind Speed 6 mph (NNW)    
Max Wind Speed 15 mph    
Max Gust Speed 18 mph    
Visibility 10 miles    
Events      
T = Trace of Precipitation, MM = Missing Value Source: NWS Daily Summary

Daily Weather History Graph

Daily Weather History Graph

Search for Another Location

Airport or City:

Trip Planner

Search our weather history database for the weather conditions in past years. The results will help you decide how hot, cold, wet, or windy it might be!

Date:

Astronomy

Nov. 06, 2013 Rise Set
Actual Time 6:32 AM MST 5:07 PM MST
Civil Twilight 6:06 AM MST 5:33 PM MST
Nautical Twilight 5:35 AM MST 6:03 PM MST
Astronomical Twilight 5:06 AM MST 6:33 PM MST
Moon 9:47 AM MST (11/6) 8:17 PM MST (11/6)
Length of Visible Light 11h 27m
Length of Day
10h 34m
Waxing Crescent, 14% of the Moon is Illuminated
Nov 6
Waxing Crescent
Nov 9
First Quarter
Nov 17
Full
Nov 25
Last Quarter
Dec 2
New

Hourly Weather History & Observations

Time (MST) Temp. Windchill Dew Point Humidity Pressure Visibility Wind Dir Wind Speed Gust Speed Precip Events Conditions
12:52 AM 36.0 °F 29.6 °F 14.0 °F 41% 30.26 in 10.0 mi North 8.1 mph - N/A   Clear
1:52 AM 36.0 °F 31.1 °F 12.0 °F 37% 30.26 in 10.0 mi North 5.8 mph - N/A   Clear
2:52 AM 34.0 °F 28.0 °F 12.9 °F 42% 30.28 in 10.0 mi NNW 6.9 mph - N/A   Clear
3:52 AM 33.1 °F 30.0 °F 12.9 °F 43% 30.31 in 10.0 mi North 3.5 mph - N/A   Clear
4:52 AM 32.0 °F - 14.0 °F 48% 30.33 in 10.0 mi Calm Calm - N/A   Clear
5:52 AM 32.0 °F 25.6 °F 14.0 °F 48% 30.36 in 10.0 mi NNW 6.9 mph - N/A   Clear
6:52 AM 32.0 °F - 14.0 °F 48% 30.40 in 10.0 mi Calm Calm - N/A   Clear
7:52 AM 30.9 °F - 17.1 °F 57% 30.43 in 10.0 mi Calm Calm - N/A   Clear
8:52 AM 36.0 °F - 16.0 °F 44% 30.44 in 10.0 mi Calm Calm - N/A   Clear
9:52 AM 39.9 °F 36.7 °F 15.1 °F 36% 30.43 in 10.0 mi West 4.6 mph - N/A   Clear
10:52 AM 42.1 °F 38.4 °F 14.0 °F 32% 30.43 in 10.0 mi Variable 5.8 mph - N/A   Clear
11:52 AM 45.0 °F 41.2 °F 14.0 °F 29% 30.39 in 10.0 mi West 6.9 mph - N/A   Clear
12:52 PM 50.0 °F - 8.1 °F 18% 30.35 in 10.0 mi North 10.4 mph - N/A   Clear
1:52 PM 51.1 °F - 12.0 °F 21% 30.33 in 10.0 mi NW 6.9 mph - N/A   Clear
2:52 PM 53.1 °F - 12.9 °F 20% 30.32 in 10.0 mi West 9.2 mph - N/A   Clear
3:52 PM 54.0 °F - 12.0 °F 19% 30.32 in 10.0 mi NNW 9.2 mph - N/A   Clear
4:52 PM 53.1 °F - 14.0 °F 21% 30.32 in 10.0 mi NW 13.8 mph - N/A   Clear
5:52 PM 50.0 °F - 15.1 °F 25% 30.36 in 10.0 mi North 5.8 mph - N/A   Clear
6:52 PM 50.0 °F - 14.0 °F 24% 30.38 in 10.0 mi NNW 4.6 mph - N/A   Clear
7:52 PM 46.0 °F 43.1 °F 17.1 °F 31% 30.42 in 10.0 mi NNE 5.8 mph - N/A   Clear
8:52 PM 46.0 °F 42.5 °F 17.1 °F 31% 30.42 in 10.0 mi North 6.9 mph - N/A   Clear
9:52 PM 44.1 °F 39.5 °F 16.0 °F 32% 30.43 in 10.0 mi NNE 8.1 mph - N/A   Clear
10:52 PM 42.1 °F 38.4 °F 16.0 °F 35% 30.43 in 10.0 mi NE 5.8 mph - N/A   Clear
11:52 PM 42.1 °F 37.1 °F 15.1 °F 34% 30.41 in 10.0 mi North 8.1 mph - N/A   Clear